Weather Roundup
Issued by NWS

Home | Current Version | Previous Version | Graphics & Text | Print | Product List | Glossary Off
Versions: 1 2 3 4 5 6 7 8 9 10 11 12 13 14 15 16 17 18 19 20 21 22 23 24 25 26 27 28 29 30 31 32 33 34 35 36 37 38 39 40 41 42 43 44 45 46 47 48 49 50

009
NZUS93 KARX 191459
HRRWXR

CURRENT HOURLY OBSERVATIONS ACROSS
MUCH OF THE UPPER MISSISSIPPI VALLEY
NATIONAL WEATHER SERVICE LA CROSSE WI
900 AM CST SUN FEB 19 2017


...SOUTHEAST MINNESOTA...


CITY           SKY/WX    TMP DP  RH WIND       PRES   REMARKS
ROCHESTER      CLOUDY    38  36  92 S9        29.99R WCI  31
ROCHESTER/MAYO FAIR      41  35  80 SE6       29.99R
WINONA         MOSUNNY   34  32  93 CALM      30.02R
AUSTIN         SUNNY     37  37 100 SE6       29.97S WCI  33
ALBERT LEA     CLOUDY    39  39 100 SE7       29.95S WCI  34
DODGE CENTER   CLOUDY    37  36  93 SE3       29.97S
PRESTON        CLOUDY    38  34  84 S5        30.00R WCI  35
OWATONNA       CLOUDY    43  37  81 SE9       29.95F
FARIBAULT      MOSUNNY   41  37  87 CALM      29.95F
$$

...ELSEWHERE IN MINNESOTA...


CITY           SKY/WX    TMP DP  RH WIND       PRES   REMARKS
MINNEAPOLIS    PTSUNNY   40  35  83 SE5       29.96S
INTNL FALLS    CLOUDY    32  28  85 E7        29.94S WCI  26
DULUTH         MOSUNNY   36  31  82 E7        29.96R WCI  30
RED WING       CLOUDY    36  34  93 E5        29.98S WCI  32
REDWOOD FALLS  MOSUNNY   40  36  86 SE12      29.86F WCI  33
MANKATO          N/A     40  37  89 SE14      29.91F WCI  32
WORTHINGTON    CLOUDY    42  36  79 S13       29.85F
FAIRMONT       MOSUNNY   39  39 100 S10       29.91F WCI  32
$$

...SOUTHWEST WISCONSIN...


CITY           SKY/WX    TMP DP  RH WIND       PRES   REMARKS
LA CROSSE      CLOUDY    36  32  85 S5        30.02R WCI  32
PRAIRIE DU CHI SUNNY     33  32  96 CALM      30.03S
BOSCOBEL       MOSUNNY   36  31  82 CALM      30.04R
LONE ROCK      NOT AVBL
PLATTEVILLE    SUNNY     44  38  80 E3        30.02S
FORT MC COY    SUNNY     35  32  88 CALM      30.02R
MAUSTON-NEW LI SUNNY     40  32  75 CALM      30.00F
VIROQUA        FAIR      42  34  73 CALM      30.00S
WIS DELLS      SUNNY     37  32  84 CALM      30.02S
$$

...ELSEWHERE IN WISCONSIN...


CITY           SKY/WX    TMP DP  RH WIND       PRES   REMARKS
MILWAUKEE      MOSUNNY   53  34  48 N5        30.04R
MADISON        MOSUNNY   39  34  82 CALM      30.02S
GREEN BAY      SUNNY     49  37  63 CALM      30.03R
EAU CLAIRE     NOT AVBL
BLACK RVR FLS  FAIR      35  31  85 CALM      30.01R
MEDFORD        MOSUNNY   32  31  94 NE3       29.99S
WAUSAU         SUNNY     36  32  85 CALM      29.99S
WIS RAPIDS     SUNNY     41  33  73 CALM      30.02S
MARSHFIELD     SUNNY     40  33  76 CALM      30.00R
RICE LAKE      MOSUNNY   33  32  95 CALM      30.00S
$$

...NORTHEAST IOWA...


CITY           SKY/WX    TMP DP  RH WIND       PRES   REMARKS
WATERLOO       FOG       33  33 100 SE3       30.00S VSB 3/4
DUBUQUE        SUNNY     47  40  76 S5        30.02S
DECORAH        SUNNY     41  36  81 CALM      30.00R
MASON CITY     SUNNY     38  37  97 SE6       29.98R FOG     WCI  33
CHARLES CITY   SUNNY     41  41 100 SE7       29.99S
OELWEIN        SUNNY     43  41  93 SE7       30.00S
$$

...ELSEWHERE IN IOWA...


CITY           SKY/WX    TMP DP  RH WIND       PRES   REMARKS
DES MOINES     MOSUNNY   48  35  60 S7        29.97R
IOWA CITY      SUNNY     41  36  82 CALM      30.04R
FORT DODGE     CLOUDY    43  37  81 SE7       29.94S
MARSHALLTOWN   SUNNY     41  40  96 SE8       29.97S
CEDAR RAPIDS   SUNNY     42  42 100 E6        30.00R
$$

...NORTHERN ILLINOIS...


CITY           SKY/WX    TMP DP  RH WIND       PRES   REMARKS
CHICAGO-OHARE  MOSUNNY   53  36  52 CALM      30.03R
CHICAGO-MIDWAY MOSUNNY   51  39  63 CALM      30.04S
MOLINE         SUNNY     43  36  76 E3        30.02S
ROCKFORD       MOSUNNY   42  37  82 CALM      30.06S
PEORIA         FOG       40  40 100 CALM      30.05R VSB<1/4
$$

NOTE: "FAIR" INDICATES FEW OR NO CLOUDS BELOW 12,000 FEET WITH NO
SIGNIFICANT WEATHER AND/OR OBSTRUCTIONS TO VISIBILITY. WIND
SPEEDS ARE IN MILES-PER-HOUR.




USA.gov is the U.S. government's official web portal to all federal, state and local government web resources and services.